IRIS-A
1 51044U 22002BN 23229.42904073 .00010811 00000-0 49541-3 0 9994
2 51044 97.4305 293.9842 0008417 36.9623 323.2190 15.20615502 87967
Tevel-7
1 51062U 22002CG 23229.82607448 .00023555 00000-0 87285-3 0 9990
2 51062 97.4301 296.5020 0006894 27.2758 332.8842 15.27613527 88164
Tevel-4
1 51063U 22002CH 23229.83454565 .00023204 00000-0 86164-3 0 9998
2 51063 97.4297 296.4873 0006961 27.5640 332.5967 15.27547814 88162
Tevel-2
1 51069U 22002CP 23229.80602840 .00024083 00000-0 89082-3 0 9990
2 51069 97.4286 296.4140 0006907 28.5032 331.6584 15.27667823 88167
DELFI-PQ
1 51074U 22002CU 23229.45367052 .00060346 00000-0 14122-2 0 9994
2 51074 97.4543 302.7974 0007208 41.2520 318.9271 15.41898958 88425
SO-115
1 51080U 22002DA 23228.93668004 .00031044 00000-0 10094-2 0 9991
2 51080 97.4578 299.9302 0009989 52.7544 307.4607 15.31792351 88181
SO-114
1 51081U 22002DB 23228.65559399 .00027112 00000-0 87660-3 0 9992
2 51081 97.4587 299.6305 0010134 52.9963 307.2204 15.31999901 88140
OreSat0
1 52017U 22026K 23228.50220584 .00018300 00000-0 68696-3 0 9990
2 52017 97.5089 231.1679 0019659 225.5877 134.3753 15.27078564 78747
Planetum 1
1 52738U 22057G 23228.73500259 .00016651 00000-0 73015-3 0 9997
2 52738 97.5433 344.7605 0007598 134.3159 225.8701 15.22031399 67869
Foresail-1
1 52766U 22057AL 23229.74453588 .00012396 00000-0 56597-3 0 9990
2 52766 97.5560 346.6601 0012885 114.8083 245.4494 15.20666061 68037
SNUGLITE 2
1 52899U 22065F 23228.62283796 .00001296 00000-0 28263-3 0 9990
2 52899 98.0771 11.8152 0008539 35.9984 324.1790 14.59471763 59678
CTIM
1 52950U 22074G 23229.75884921 .00083097 00000-0 14255-2 0 9994
2 52950 44.9984 13.5031 0014477 269.1090 90.8143 15.50165750 63137
IO-117
1 53106U 22080B 23227.19645840 -.00000003 00000-0 00000+0 0 9993
2 53106 70.1558 299.2185 0008561 175.7703 184.3030 6.42556951 25547
AstroBioCubeSat
1 53107U 22080C 23025.30817895 -.00000003 00000-0 00000-0 0 9995
2 53107 70.1710 9.4734 0013545 210.3158 149.6718 6.42110537 12478
SelfieSat
1 53951U 22057BC 23229.28256754 .00023239 00000-0 95246-3 0 9994
2 53951 97.5485 346.1633 0009211 126.9258 233.2824 15.24239299 67985
FO-118
1 54684U 22167C 23229.84292041 .00014575 00000-0 77020-3 0 9994
2 54684 97.5704 7.0843 0014112 121.0547 239.2073 15.15510724 38011
SSS-2B
1 56184U 23054G 23229.71750526 .00014776 00000-0 60588-3 0 9994
2 56184 97.4022 123.8734 0010968 168.0930 192.0569 15.24301563 19540
CIRBE
1 56188U 23054L 23228.95482143 .00018033 00000-0 72005-3 0 9997
2 56188 97.3981 123.1344 0009680 162.5668 197.5904 15.25161884 19435
INSPIRE-Sat 7
1 56211U 23054AK 23229.15227087 .00019741 00000-0 74411-3 0 9991
2 56211 97.3997 123.6753 0015226 149.1721 211.0415 15.26997174 19486
RoseyCubesat 1
1 56212U 23054AL 23229.19861403 .00022025 00000-0 82010-3 0 9995
2 56212 97.4005 123.7753 0015510 148.4662 211.7510 15.27375371 19495
ARKSAT 1
1 56311U 98067VC 23228.92625783 .00114479 00000-0 10716-2 0 9998
2 56311 51.6364 20.9760 0007313 301.5042 58.5239 15.66347026 17859
AuroraSat
1 56312U 98067VD 23228.90621448 .00161003 00000-0 12887-2 0 9997
2 56312 51.6344 20.0794 0008305 297.4156 62.5996 15.69995743 17894
Ex-Alta 2
1 56313U 98067VE 23229.68940870 .00110674 00000-0 10235-2 0 9990
2 56313 51.6341 17.0592 0007506 303.2897 56.7379 15.66661913 17991
LightCube
1 56314U 98067VF 23229.24632424 .00150143 00000-0 12433-2 0 9993
2 56314 51.6340 18.5990 0008851 291.7529 68.2526 15.69206916 17966
NEUDOSE
1 56315U 98067VG 23229.45289196 .00068595 00000-0 77377-3 0 9999
2 56315 51.6355 19.9886 0007518 296.3185 63.7036 15.61839406 17919
YukonSat
1 56316U 98067VH 23229.44295055 .00093653 00000-0 95002-3 0 9998
2 56316 51.6353 19.1706 0007921 294.2277 65.7889 15.64416835 17949
URESAT-1
1 56992U 23084BU 23229.56961752 .00013298 00000-0 75140-3 0 9990
2 56992 97.5122 345.1010 0017876 10.9103 349.2512 15.13090355 9924
MRC-100
1 56993U 23084BV 23228.31311347 .00012551 00000-0 70928-3 0 9992
2 56993 97.5122 343.8683 0018002 15.2037 344.9731 15.13099570 9745
UmKA 1 (RS40S)
1 57172U 23091G 23229.72400337 .00004129 00000-0 30432-3 0 9992
2 57172 97.6608 279.9357 0020148 78.7172 281.6316 15.03716226 7680
CubeBel-2 (EU11S)
1 57175U 23091K 23229.74458877 .00006480 00000-0 48189-3 0 9999
2 57175 97.6611 279.9036 0018486 90.2615 270.0729 15.03183277 7688
/EX
1
0
17 Aug '23
This week there are no additions or deletions to the weekly AMSAT TLE distribution.
1
0
SB KEPS @ AMSAT $ORB23223.1
2Line Orbital Elements 23223.AMSAT
QST de W1STR
AMSAT Orbital Elements for Amateur Satellites in TLE Format
>From Orbital Analysis Office
New England Sci-Tech STEM Education Center
Natick, MA August 11, 2023
To all radio amateurs
These element sets describe the orbits of various satellites
in use by the amateur radio community. For details see:
www.amsat.org/keplerian-elements-formats/
A daily update of element sets is available at:
www.amsat.org/tle/daily-bulletin.txt
or without bulletin text:
www.amsat.org/tle/dailytle.txt
AO-07
1 07530U 74089B 23222.47455875 -.00000023 00000-0 14441-3 0 9992
2 07530 101.9507 209.5243 0012037 321.7835 207.1949 12.53665948230216
UO-11
1 14781U 84021B 23222.16508001 .00001779 00000-0 21394-3 0 9994
2 14781 97.6614 197.0218 0008994 34.6937 325.4864 14.85104300123156
AO-16
1 20439U 90005D 23222.20980531 .00000237 00000-0 10314-3 0 9995
2 20439 98.8863 213.8332 0011638 49.5915 11.0923 14.33139250752894
LO-19
1 20442U 90005G 23221.85465452 .00000252 00000-0 10824-3 0 9992
2 20442 98.8478 199.5276 0012244 26.5657 333.6151 14.33293068753096
AO-27
1 22825U 93061C 23222.35243263 .00000120 00000-0 64055-4 0 9994
2 22825 98.8375 266.1058 0007312 269.7337 90.3007 14.30330740558304
IO-26
1 22826U 93061D 23222.62189504 .00000142 00000-0 71681-4 0 9999
2 22826 98.8321 266.2417 0007901 252.5270 107.5049 14.30694636558591
FO-29
1 24278U 96046B 23222.16617388 .00000008 00000-0 46863-4 0 9998
2 24278 98.5325 193.3768 0349104 276.9208 79.2346 13.53151659332489
NOAA-15
1 25338U 98030A 23222.80278537 .00000230 00000-0 11351-3 0 9991
2 25338 98.6036 250.9194 0011009 149.0166 211.1666 14.26368881313044
GO-32
1 25397U 98043D 23222.46868181 .00000114 00000-0 69710-4 0 9996
2 25397 98.8723 180.4038 0001427 28.3365 331.7890 14.23896314303277
ISS
1 25544U 98067A 23222.88067920 .00004896 00000-0 93399-4 0 9995
2 25544 51.6404 57.5459 0000256 325.2799 180.8504 15.50087296410270
NO-44
1 26931U 01043C 23222.29928598 .00000189 00000-0 10332-3 0 9992
2 26931 67.0508 57.0999 0007764 263.8246 96.1970 14.30958671141487
SO-50
1 27607U 02058C 23222.11455617 .00001216 00000-0 18449-3 0 9997
2 27607 64.5543 99.5811 0063684 213.4367 146.2709 14.77469906110405
CO-55
1 27844U 03031E 23222.74997065 .00000393 00000-0 19424-3 0 9998
2 27844 98.6787 229.2097 0009190 334.7195 25.3532 14.22839936 43525
CO-57
1 27848U 03031J 23222.49860377 .00000336 00000-0 17073-3 0 9994
2 27848 98.6823 229.3566 0009437 351.2189 8.8822 14.22342567 43272
